グラウアー彗星

C/2009 U5 ( Grauer )

English version
Home page
Updated on April 6, 2013

---------------------------------------------------------------------

・ プロフィール

発見日 2009年10月23日
発見光度 19.4等
発見者 A. D. Grauer (Mount Lemmon)

・ 写真集

・ 軌道要素

Epoch 2010 June 13.0 TT = JDT 2455360.5
T 2010 June 22.37082 TT                                 MPC
q   6.0943301            (2000.0)            P               Q
z  +0.0000544      Peri.   23.80409     -0.78535269     -0.49782821
 +/-0.0000019      Node   121.17239     +0.47614171     -0.86562052
e   0.9996685      Incl.   25.47034     +0.39561373     +0.05355554
From 163 observations 2009 Oct. 23-2011 Apr. 2, mean residual 0".6.

・ 光度変化

        m1 = 7.0 + 5 logΔ + 10.0 log r

---------------------------------------------------------------------

軌道要素はM.P.E.C. 2013-B90に掲載されたものです。
光度グラフはComet for Windowsで作成したものです。

---------------------------------------------------------------------

Copyright(C) Seiichi Yoshida (comet@aerith.net). All rights reserved.